Change the Weather History Date:

Sunday, June 15, 2014

  Actual Average Record
Temperature  
Mean Temperature 46 °F -  
Max Temperature 59 °F 66 °F 68 °F (2013)
Min Temperature 32 °F 37 °F 30 °F (2013)
Degree Days  
Heating Degree Days 20    
Moisture  
Dew Point 33 °F    
Average Humidity 64    
Maximum Humidity 100    
Minimum Humidity 27    
Precipitation  
Precipitation 0.11 in - - ()
Sea Level Pressure  
Sea Level Pressure 29.89 in    
Wind  
Wind Speed 7 mph (SW)    
Max Wind Speed 18 mph    
Max Gust Speed 32 mph    
Visibility 10 miles    
Events Rain    
Averages and records for this station are not official NWS values.
T = Trace of Precipitation, MM = Missing Value Source: NWS Daily Summary

Daily Weather History Graph

Daily Weather History Graph

Search for Another Location

Airport or City:

Trip Planner

Search our weather history database for the weather conditions in past years. The results will help you decide how hot, cold, wet, or windy it might be!

Date:

Astronomy

Jun. 15, 2014 Rise Set
Actual Time 5:38 AM MDT 9:11 PM MDT
Civil Twilight 5:01 AM MDT 9:48 PM MDT
Nautical Twilight 4:12 AM MDT 10:37 PM MDT
Astronomical Twilight 3:08 AM MDT 11:41 PM MDT
Moon 11:16 PM MDT (6/15) 8:41 AM MDT (6/15)
Length of Visible Light 16h 47m
Length of Day
15h 33m
Waning Gibbous, 91% of the Moon is Illuminated
Jun 15
Waning Gibbous
Jun 19
Last Quarter
Jun 27
New
Jul 5
First Quarter
Jul 12
Full

Hourly Weather History & Observations

Time (MDT) Temp. Windchill Dew Point Humidity Pressure Visibility Wind Dir Wind Speed Gust Speed Precip Events Conditions
12:10 AM 42.8 °F 39.3 °F 35.6 °F 76% 29.97 in 10.0 mi South 5.8 mph - N/A   Overcast
12:30 AM 42.8 °F 39.3 °F 35.6 °F 76% 29.96 in 10.0 mi SSW 5.8 mph - N/A   Overcast
12:50 AM 42.8 °F 39.3 °F 33.8 °F 70% 29.95 in 10.0 mi South 5.8 mph - N/A   Overcast
1:10 AM 42.8 °F 38.6 °F 33.8 °F 70% 29.95 in 10.0 mi SSW 6.9 mph - N/A   Overcast
1:30 AM 42.8 °F 38.0 °F 33.8 °F 70% 29.94 in 10.0 mi SSW 8.1 mph - N/A   Overcast
1:50 AM 42.8 °F 38.6 °F 32.0 °F 66% 29.94 in 10.0 mi SW 6.9 mph - N/A   Overcast
2:10 AM 41.0 °F 36.4 °F 32.0 °F 70% 29.94 in 10.0 mi SW 6.9 mph - N/A   Overcast
2:30 AM 39.2 °F - 32.0 °F 75% 29.94 in 10.0 mi Calm Calm - N/A   Mostly Cloudy
2:50 AM 37.4 °F - 32.0 °F 81% 29.94 in 10.0 mi Calm Calm - N/A   Scattered Clouds
3:10 AM 35.6 °F - 32.0 °F 87% 29.94 in 10.0 mi Calm Calm - N/A   Partly Cloudy
3:30 AM 35.6 °F - 32.0 °F 87% 29.94 in 10.0 mi Calm Calm - N/A   Partly Cloudy
3:50 AM 32.0 °F 28.7 °F 32.0 °F 100% 29.94 in 10.0 mi South 3.5 mph - N/A   Clear
4:10 AM 32.0 °F - 30.2 °F 93% 29.94 in 10.0 mi Calm Calm - N/A   Partly Cloudy
4:30 AM 33.8 °F - 30.2 °F 87% 29.94 in 10.0 mi Calm Calm - N/A   Partly Cloudy
5:10 AM 32.0 °F - 30.2 °F 93% 29.93 in 10.0 mi Calm Calm - N/A   Mostly Cloudy
5:30 AM 32.0 °F - 28.4 °F 87% 29.94 in 10.0 mi Calm Calm - N/A   Partly Cloudy
5:50 AM 32.0 °F - 28.4 °F 87% 29.94 in 10.0 mi Calm Calm - N/A   Scattered Clouds
6:10 AM 32.0 °F - 28.4 °F 87% 29.94 in 10.0 mi Calm Calm - N/A   Mostly Cloudy
6:30 AM 32.0 °F - 30.2 °F 93% 29.94 in 10.0 mi Calm Calm - N/A   Overcast
6:50 AM 37.4 °F 34.9 °F 32.0 °F 81% 29.94 in 10.0 mi North 3.5 mph - N/A   Mostly Cloudy
7:10 AM 35.6 °F 32.8 °F 32.0 °F 87% 29.94 in 10.0 mi North 3.5 mph - N/A   Mostly Cloudy
7:30 AM 39.2 °F - 32.0 °F 75% 29.95 in 10.0 mi Calm Calm - N/A   Scattered Clouds
7:50 AM 41.0 °F 39.0 °F 32.0 °F 70% 29.95 in 10.0 mi SW 3.5 mph - N/A   Mostly Cloudy
8:10 AM 44.6 °F 41.4 °F 32.0 °F 61% 29.94 in 10.0 mi SW 5.8 mph - N/A   Partly Cloudy
8:30 AM 46.4 °F 41.1 °F 32.0 °F 57% 29.94 in 10.0 mi SSW 11.5 mph 17.3 mph N/A   Mostly Cloudy
8:50 AM 46.4 °F 41.5 °F 32.0 °F 57% 29.93 in 10.0 mi SW 10.4 mph 17.3 mph N/A   Overcast
9:10 AM 46.4 °F 40.4 °F 32.0 °F 57% 29.93 in 10.0 mi SSW 13.8 mph 20.7 mph N/A   Mostly Cloudy
9:30 AM 46.4 °F 41.5 °F 32.0 °F 57% 29.92 in 10.0 mi WSW 10.4 mph 18.4 mph N/A   Mostly Cloudy
9:50 AM 48.2 °F - 32.0 °F 54% 29.92 in 10.0 mi SW 15.0 mph 20.7 mph N/A   Overcast
10:10 AM 48.2 °F - 32.0 °F 54% 29.92 in 10.0 mi SW 11.5 mph 23.0 mph N/A   Mostly Cloudy
10:30 AM 50.0 °F - 32.0 °F 50% 29.91 in 10.0 mi SSW 15.0 mph 20.7 mph N/A   Partly Cloudy
10:50 AM 50.0 °F - 32.0 °F 50% 29.91 in 10.0 mi SSW 12.7 mph 19.6 mph N/A   Scattered Clouds
11:10 AM 51.8 °F - 32.0 °F 47% 29.91 in 10.0 mi SSW 17.3 mph - N/A   Mostly Cloudy
11:30 AM 53.6 °F - 32.0 °F 44% 29.91 in 10.0 mi SW 16.1 mph 24.2 mph N/A   Mostly Cloudy
11:50 AM 53.6 °F - 32.0 °F 44% 29.90 in 10.0 mi SSW 17.3 mph 26.5 mph N/A   Mostly Cloudy
12:10 PM 53.6 °F - 32.0 °F 44% 29.90 in 10.0 mi SSW 18.4 mph 25.3 mph N/A   Scattered Clouds
12:30 PM 53.6 °F - 32.0 °F 44% 29.90 in 10.0 mi SSW 16.1 mph 21.9 mph N/A   Partly Cloudy
12:50 PM 55.4 °F - 30.2 °F 38% 29.89 in 10.0 mi SSW 12.7 mph 20.7 mph N/A   Scattered Clouds
1:10 PM 53.6 °F - 32.0 °F 44% 29.89 in 10.0 mi SSW 15.0 mph 18.4 mph N/A   Overcast
1:30 PM 55.4 °F - 32.0 °F 41% 29.88 in 10.0 mi WSW 11.5 mph 23.0 mph N/A   Mostly Cloudy
1:50 PM 57.2 °F - 28.4 °F 33% 29.87 in 10.0 mi South 16.1 mph 25.3 mph N/A   Scattered Clouds
2:10 PM 59.0 °F - 24.8 °F 27% 29.87 in 10.0 mi SW 13.8 mph 24.2 mph N/A   Scattered Clouds
2:30 PM 57.2 °F - 26.6 °F 31% 29.86 in 10.0 mi SW 12.7 mph 26.5 mph N/A   Partly Cloudy
2:50 PM 57.2 °F - 26.6 °F 31% 29.86 in 10.0 mi SW 16.1 mph 21.9 mph N/A   Scattered Clouds
3:10 PM 57.2 °F - 28.4 °F 33% 29.85 in 10.0 mi SSW 17.3 mph 20.7 mph N/A   Scattered Clouds
3:30 PM 59.0 °F - 28.4 °F 31% 29.84 in 10.0 mi SW 18.4 mph 31.1 mph N/A   Scattered Clouds
3:50 PM 59.0 °F - 28.4 °F 31% 29.84 in 10.0 mi SSW 17.3 mph 25.3 mph N/A   Scattered Clouds
4:10 PM 57.2 °F - 28.4 °F 33% 29.84 in 10.0 mi SW 15.0 mph 29.9 mph N/A   Mostly Cloudy
4:30 PM 59.0 °F - 28.4 °F 31% 29.84 in 10.0 mi SW 13.8 mph 31.1 mph N/A   Mostly Cloudy
4:50 PM 59.0 °F - 28.4 °F 31% 29.83 in 10.0 mi SW 13.8 mph 24.2 mph N/A   Scattered Clouds
5:10 PM 57.2 °F - 28.4 °F 33% 29.83 in 10.0 mi SW 16.1 mph 32.2 mph N/A   Scattered Clouds
5:30 PM 57.2 °F - 30.2 °F 36% 29.83 in 10.0 mi SW 9.2 mph 16.1 mph N/A   Mostly Cloudy
5:50 PM 57.2 °F - 30.2 °F 36% 29.83 in 10.0 mi WSW 8.1 mph 19.6 mph N/A   Scattered Clouds
6:10 PM 57.2 °F - 28.4 °F 33% 29.82 in 10.0 mi WSW 10.4 mph 16.1 mph N/A   Partly Cloudy
6:30 PM 57.2 °F - 28.4 °F 33% 29.82 in 10.0 mi WSW 16.1 mph 25.3 mph N/A   Mostly Cloudy
6:50 PM 55.4 °F - 30.2 °F 38% 29.82 in 10.0 mi SW 11.5 mph 18.4 mph N/A   Mostly Cloudy
7:10 PM 55.4 °F - 28.4 °F 36% 29.82 in 10.0 mi SW 15.0 mph 26.5 mph N/A   Mostly Cloudy
7:30 PM 53.6 °F - 35.6 °F 51% 29.84 in 8.0 mi WSW 18.4 mph 29.9 mph N/A   Mostly Cloudy
7:50 PM 44.6 °F 40.2 °F 39.2 °F 81% 29.85 in 3.0 mi West 8.1 mph 24.2 mph 0.03 in Rain Light Rain
8:10 PM 44.6 °F 42.2 °F 41.0 °F 87% 29.85 in 10.0 mi WNW 4.6 mph - N/A   Mostly Cloudy
8:30 PM 44.6 °F 40.2 °F 41.0 °F 87% 29.87 in 5.0 mi SW 8.1 mph - 0.01 in Rain Light Rain
8:50 PM 42.8 °F 37.0 °F 39.2 °F 87% 29.87 in 2.5 mi South 10.4 mph 17.3 mph 0.04 in Rain Light Rain
9:10 PM 41.0 °F 35.2 °F 39.2 °F 93% 29.86 in 8.0 mi South 9.2 mph - N/A Rain Light Rain
9:30 PM 41.0 °F 38.0 °F 39.2 °F 93% 29.86 in 4.0 mi SSE 4.6 mph - 0.02 in Rain Light Rain
9:50 PM 41.0 °F 37.1 °F 41.0 °F 100% 29.87 in 8.0 mi SE 5.8 mph - 0.02 in Rain Light Rain
10:10 PM 41.0 °F - 41.0 °F 100% 29.87 in 9.0 mi Calm Calm - 0.01 in Rain Light Rain
10:30 PM 42.8 °F 39.3 °F 41.0 °F 93% 29.86 in 10.0 mi East 5.8 mph - 0.02 in   Overcast
10:50 PM 42.8 °F 39.3 °F 41.0 °F 93% 29.86 in 10.0 mi East 5.8 mph - 0.02 in   Mostly Cloudy
11:10 PM 42.8 °F 40.1 °F 41.0 °F 93% 29.85 in 10.0 mi ENE 4.6 mph - N/A   Overcast
11:30 PM 42.8 °F 40.1 °F 41.0 °F 93% 29.85 in 10.0 mi SE 4.6 mph - N/A   Overcast
11:50 PM 42.8 °F - 41.0 °F 93% 29.84 in 10.0 mi Calm Calm - N/A   Overcast